Location: Rioux
(40.7500°S, 175.7500°E)
Time: 21:58:11
(UTC+00:00)

USA 59 Rocket - Visible Passes

Search period start: 19 September 2024 00:00
Search period end: 29 September 2024 00:00
Orbit: 380 x 1730 km, 63.3° (Epoch: 19 September)

Date Brightness Start Highest point End Pass type
(mag) Time Alt. Az. Time Alt. Az. Time Alt. Az.
19 Sep 3.5 08:22:05 16° ESE 08:22:05 16° ESE 08:24:18 10° SE visible
19 Sep 2.5 10:08:14 52° SSE 10:08:14 52° SSE 10:15:48 10° SE visible
19 Sep 3.4 11:54:23 30° SW 11:56:54 33° SSW 12:06:06 10° SSE visible
19 Sep 4.0 13:43:39 10° SW 13:50:46 20° S 13:57:35 10° SE visible
19 Sep 3.8 15:37:10 10° SSW 15:45:03 24° SSE 15:51:53 10° ESE visible
19 Sep 2.5 17:27:59 10° SSW 17:37:40 55° SE 17:44:58 10° ENE visible
20 Sep 3.4 07:21:05 12° ESE 07:21:05 12° ESE 07:22:16 10° ESE visible
20 Sep 2.1 08:56:26 10° NNW 09:06:57 59° E 09:15:55 10° SE visible
20 Sep 2.9 10:52:42 36° W 10:56:15 46° SW 11:06:23 10° SSE visible
20 Sep 3.9 12:41:40 10° WSW 12:49:25 23° SSW 12:57:04 10° SSE visible
20 Sep 4.0 14:36:38 10° SW 14:43:48 20° S 14:50:20 10° SE visible
20 Sep 3.2 16:28:11 10° SSW 16:37:17 37° SE 16:44:33 10° E visible
21 Sep 2.4 07:58:11 10° N 08:06:17 38° ENE 08:15:37 10° SE visible
21 Sep 2.3 09:46:31 10° NW 09:55:58 69° SW 10:06:39 10° SSE visible
21 Sep 3.6 11:39:43 10° W 11:48:16 29° SSW 11:56:59 10° SSE visible
21 Sep 4.0 13:35:22 10° SW 13:42:21 19° S 13:48:57 10° SE visible
21 Sep 3.7 15:28:12 10° SSW 15:36:27 27° SSE 15:43:27 10° E visible
21 Sep 2.1 17:18:51 10° SSW 17:28:39 68° SE 17:35:53 10° NE visible
22 Sep 3.0 07:01:22 10° NE 07:07:33 21° E 07:14:24 10° ESE visible
22 Sep 1.9 08:46:54 10° NNW 08:56:07 79° ENE 09:06:48 10° SE visible
22 Sep 3.1 10:38:14 10° WNW 10:47:24 40° SW 10:57:09 10° SSE visible
22 Sep 4.0 12:33:27 10° WSW 12:40:53 21° SSW 12:48:07 10° SSE visible
22 Sep 3.9 14:27:51 10° SSW 14:35:16 21° SSE 14:41:54 10° ESE visible
22 Sep 2.9 16:18:59 10° SSW 16:28:24 43° SE 16:35:43 10° ENE visible
23 Sep 2.2 07:48:09 10° N 07:56:42 48° ENE 08:06:38 10° SE visible
23 Sep 2.6 09:37:26 10° NW 09:46:52 58° SW 09:57:22 10° SSE visible
23 Sep 3.8 11:31:21 10° WSW 11:39:33 26° SSW 11:47:48 10° SSE visible
23 Sep 4.1 13:26:50 10° SW 13:33:49 19° S 13:40:19 10° SE visible
23 Sep 3.5 15:19:02 10° SSW 15:27:41 30° SSE 15:34:49 10° E visible
23 Sep 1.8 17:09:37 10° SW 17:19:24 84° SE 17:26:31 10° NE visible
24 Sep 2.7 06:50:32 10° NNE 06:57:44 27° ENE 07:05:52 10° SE visible
24 Sep 2.1 08:37:24 10° NW 08:46:45 86° SW 08:57:31 10° SE visible
24 Sep 3.4 10:29:33 10° W 10:38:29 34° SSW 10:47:48 10° SSE visible
24 Sep 4.1 12:25:05 10° SW 12:32:15 20° S 12:39:09 10° SE visible
24 Sep 3.8 14:18:48 10° SSW 14:26:34 23° SSE 14:33:21 10° ESE visible
24 Sep 2.5 16:09:40 10° SSW 16:19:18 52° SE 16:26:37 10° ENE visible
25 Sep 2.1 07:38:11 10° NNW 07:47:04 60° ENE 07:57:27 10° SE visible
25 Sep 2.9 09:28:22 10° WNW 09:37:44 49° SW 09:47:57 10° SSE visible
25 Sep 3.9 11:22:55 10° WSW 11:30:47 23° SSW 11:38:33 10° SSE visible
25 Sep 4.0 13:18:02 10° SW 13:25:08 20° S 13:31:38 10° SE visible
25 Sep 3.2 15:09:42 10° SSW 15:18:42 35° SE 15:25:57 10° E visible
25 Sep 1.6 17:00:18 10° SW 17:09:54 79° WNW 17:16:53 10° NNE visible
26 Sep 2.6 06:39:57 10° NNE 06:47:51 35° ENE 06:56:55 10° SE visible
26 Sep 2.3 08:27:56 10° NW 08:37:21 73° SW 08:48:04 10° SSE visible
26 Sep 3.6 10:20:52 10° W 10:29:29 30° SSW 10:38:23 10° SSE visible
26 Sep 4.1 12:16:30 10° SW 12:23:31 19° S 12:30:11 10° SE visible
26 Sep 3.7 14:09:32 10° SSW 14:17:40 26° SSE 14:24:38 10° ESE visible
26 Sep 2.1 16:00:13 10° SSW 16:10:00 64° SE 16:17:15 10° NE visible
27 Sep 2.0 07:28:17 10° NNW 07:37:24 74° ENE 07:48:03 10° SE visible
27 Sep 3.2 09:19:19 10° WNW 09:28:31 42° SW 09:38:24 10° SSE visible
27 Sep 4.0 11:14:23 10° WSW 11:21:55 21° SSW 11:29:16 10° SSE visible
27 Sep 4.0 13:08:58 10° SSW 13:16:17 21° SSE 13:22:53 10° ESE visible
27 Sep 2.9 15:00:12 10° SSW 15:09:31 41° SE 15:16:50 10° ENE visible
27 Sep 1.6 16:50:54 10° SW 17:00:10 62° WNW 17:06:58 10° NNE visible
28 Sep 2.4 06:29:32 10° N 06:37:56 45° ENE 06:47:40 10° SE visible
28 Sep 2.6 08:18:30 10° NW 08:27:55 61° SW 08:38:29 10° SSE visible
28 Sep 3.8 10:12:08 10° WSW 10:20:27 27° SSW 10:28:52 10° SSE visible
28 Sep 4.1 12:07:41 10° SW 12:14:40 19° S 12:21:11 10° SE visible
28 Sep 3.5 14:00:04 10° SSW 14:08:35 29° SSE 14:15:41 10° E visible
28 Sep 1.8 15:50:40 10° SSW 16:00:27 78° SE 16:07:38 10° NE visible
